Project,Study,Ord_Occ,Event_Num,Date_Time_UTC,Date_Time_PST,Lat_Dec,Lon_Dec,Sta_ID,Line,Sta,Depth,Pressure,Temp0,Temp1,Salt0,CorrSalt0,Salt1,CorrSalt1,O2ml/L,AveCorrO2ml/L,StaCorrO2ml/L,FluorV,AveEstChl,StaEstChl,ISUSV,AveEstNO3,StaEstNO3,SigThetaTS0,SigThetaTS1,BAT,XMiss,SPAR,PAR,BTL_Depth,BTL_Temp,BTL_Salt,BTL_O2ml/L,BTL_Chl,BTL_Pha,BTL_NO3
CalCOFI,0711NH,048,,13-Nov-2007 20:59:58,13-Nov-2007 12:59:58,-9.990e-29,-121.45034,083.3 070.0,083.3,070.0,512.000,516.289,7.0784,7.0807,34.2692,34.2693,34.2694,34.2701,0.58840,0.58,0.61,0.0233,,,1.4392,35.57,35.167,26.8390,26.8389,0.5490,87.1746,1.8089e+03,9.9990e+03,,,,,,,
CalCOFI,0711NH,048,,13-Nov-2007 20:59:59,13-Nov-2007 12:59:59,33.24872,-121.45034,083.3 070.0,083.3,070.0,511.000,515.280,7.0797,7.0817,34.2691,34.2692,34.2693,34.2700,0.58924,0.58,0.61,0.0235,,,1.4593,36.17,35.728,26.8388,26.8386,0.5489,87.1776,1.8089e+03,9.9990e+03,511,7.08 ,34.269,  .83,,,37.4
CalCOFI,0711NH,048,,13-Nov-2007 21:00:11,13-Nov-2007 13:00:11,33.24874,-121.45038,083.3 070.0,083.3,070.0,510.000,514.270,7.0804,7.0826,34.2691,34.2692,34.2692,34.2699,0.58981,0.58,0.61,0.0234,,,1.3819,33.85,33.567,26.8387,26.8384,0.5489,87.1763,1.8121e+03,9.9990e+03,,,,,,,
CalCOFI,0711NH,048,,13-Nov-2007 21:00:15,13-Nov-2007 13:00:15,33.24874,-121.45039,083.3 070.0,083.3,070.0,509.000,513.261,7.0807,7.0826,34.2690,34.2691,34.2691,34.2698,0.59097,0.58,0.61,0.0231,,,1.4226,35.07,34.704,26.8385,26.8384,0.5489,87.1768,1.8128e+03,9.9990e+03,,,,,,,
CalCOFI,0711NH,048,,13-Nov-2007 21:00:19,13-Nov-2007 13:00:19,33.24875,-121.45042,083.3 070.0,083.3,070.0,508.000,512.251,7.0907,7.0968,34.2682,34.2683,34.2683,34.2690,0.60164,0.59,0.62,0.0234,,,1.4525,35.97,35.539,26.8365,26.8357,0.5486,87.1823,1.8126e+03,9.9990e+03,,,,,,,
CalCOFI,0711NH,048,,13-Nov-2007 21:00:20,13-Nov-2007 13:00:20,33.24876,-121.45042,083.3 070.0,083.3,070.0,507.000,511.241,7.1244,7.1274,34.2654,34.2655,34.2652,34.2659,0.60749,0.60,0.63,0.0233,,,1.4619,36.25,35.801,26.8296,26.8291,0.5488,87.1794,1.8129e+03,9.9990e+03,,,,,,,
CalCOFI,0711NH,048,,13-Nov-2007 21:00:22,13-Nov-2007 13:00:22,33.24876,-121.45043,083.3 070.0,083.3,070.0,506.000,510.232,7.1308,7.1276,34.2651,34.2652,34.2654,34.2661,0.61353,0.61,0.64,0.0233,,,1.4625,36.27,35.818,26.8285,26.8292,0.5487,87.1822,1.8127e+03,9.9990e+03,,,,,,,
CalCOFI,0711NH,048,,13-Nov-2007 21:00:24,13-Nov-2007 13:00:24,33.24876,-121.45044,083.3 070.0,083.3,070.0,505.000,509.222,7.1341,7.1340,34.2650,34.2651,34.2651,34.2658,0.61723,0.61,0.64,0.0231,,,1.4638,36.31,35.854,26.8280,26.8281,0.5485,87.1850,1.8087e+03,9.9990e+03,,,,,,,
CalCOFI,0711NH,048,,13-Nov-2007 21:00:26,13-Nov-2007 13:00:26,33.24876,-121.45044,083.3 070.0,083.3,070.0,504.000,508.213,7.1448,7.1466,34.2644,34.2645,34.2642,34.2649,0.61986,0.61,0.64,0.0235,,,1.4697,36.48,36.019,26.8260,26.8256,0.5486,87.1830,1.8084e+03,9.9990e+03,,,,,,,
CalCOFI,0711NH,048,,13-Nov-2007 21:00:27,13-Nov-2007 13:00:27,33.24877,-121.45045,083.3 070.0,083.3,070.0,503.000,507.203,7.1521,7.1509,34.2643,34.2644,34.2643,34.2650,0.62394,0.62,0.65,0.0231,,,1.4286,35.25,34.871,26.8249,26.8251,0.5486,87.1840,1.8089e+03,9.9990e+03,,,,,,,
CalCOFI,0711NH,048,,13-Nov-2007 21:00:29,13-Nov-2007 13:00:29,33.24878,-121.45046,083.3 070.0,083.3,070.0,502.000,506.193,7.1683,7.1648,34.2632,34.2633,34.2637,34.2644,0.63325,0.63,0.66,0.0234,,,1.4727,36.57,36.103,26.8218,26.8227,0.5489,87.1772,1.8088e+03,9.9990e+03,,,,,,,
CalCOFI,0711NH,048,,13-Nov-2007 21:00:31,13-Nov-2007 13:00:31,33.24878,-121.45046,083.3 070.0,083.3,070.0,501.000,505.184,7.1989,7.2007,34.2622,34.2623,34.2618,34.2625,0.64019,0.63,0.66,0.0235,,,1.4968,37.30,36.776,26.8167,26.8162,0.5489,87.1771,1.8088e+03,9.9990e+03,,,,,,,
CalCOFI,0711NH,048,,13-Nov-2007 21:00:31,13-Nov-2007 13:00:31,33.24878,-121.45046,083.3 070.0,083.3,070.0,500.000,504.174,7.2157,7.2156,34.2627,34.2628,34.2623,34.2630,0.64579,0.64,0.67,0.0233,,,1.4771,36.71,36.226,26.8148,26.8144,0.5486,87.1825,1.8088e+03,9.9990e+03,,,,,,,
CalCOFI,0711NH,048,,13-Nov-2007 21:00:32,13-Nov-2007 13:00:32,33.24878,-121.45046,083.3 070.0,083.3,070.0,499.000,503.165,7.2585,7.2585,34.2625,34.2626,34.2622,34.2629,0.64725,0.64,0.67,0.0233,,,1.4497,35.88,35.460,26.8087,26.8084,0.5486,87.1840,1.8089e+03,9.9990e+03,,,,,,,
CalCOFI,0711NH,048,,13-Nov-2007 21:00:35,13-Nov-2007 13:00:35,33.24878,-121.45049,083.3 070.0,083.3,070.0,498.000,502.155,7.2557,7.2622,34.2622,34.2623,34.2621,34.2628,0.64851,0.64,0.67,0.0230,,,1.4436,35.70,35.290,26.8088,26.8078,0.5489,87.1779,1.8088e+03,9.9990e+03,,,,,,,
CalCOFI,0711NH,048,,13-Nov-2007 21:00:38,13-Nov-2007 13:00:38,33.24879,-121.45050,083.3 070.0,083.3,070.0,497.000,501.146,7.2618,7.2723,34.2624,34.2625,34.2628,34.2635,0.66011,0.65,0.68,0.0231,,,1.4472,35.81,35.391,26.8081,26.8069,0.5492,87.1712,1.8086e+03,9.9990e+03,,,,,,,
CalCOFI,0711NH,048,,13-Nov-2007 21:00:39,13-Nov-2007 13:00:39,33.24880,-121.45050,083.3 070.0,083.3,070.0,496.000,500.136,7.3241,7.3257,34.2630,34.2631,34.2625,34.2632,0.66587,0.66,0.69,0.0236,,,1.4472,35.81,35.391,26.7998,26.7992,0.5485,87.1861,1.8090e+03,9.9990e+03,,,,,,,
CalCOFI,0711NH,048,,13-Nov-2007 21:00:40,13-Nov-2007 13:00:40,33.24880,-121.45050,083.3 070.0,083.3,070.0,495.000,499.126,7.3649,7.3661,34.2622,34.2623,34.2616,34.2623,0.66751,0.66,0.69,0.0233,,,1.4424,35.66,35.256,26.7934,26.7929,0.5490,87.1750,1.8070e+03,9.9990e+03,,,,,,,
CalCOFI,0711NH,048,,13-Nov-2007 21:00:43,13-Nov-2007 13:00:43,33.24880,-121.45051,083.3 070.0,083.3,070.0,494.000,498.117,7.3133,7.3395,34.2628,34.2629,34.2615,34.2622,0.66865,0.66,0.69,0.0234,,,1.4113,34.73,34.388,26.8011,26.7965,0.5490,87.1748,1.8052e+03,9.9990e+03,,,,,,,
CalCOFI,0711NH,048,,13-Nov-2007 21:00:45,13-Nov-2007 13:00:45,33.24881,-121.45052,083.3 070.0,083.3,070.0,493.000,497.107,7.3583,7.3652,34.2621,34.2622,34.2621,34.2628,0.68035,0.67,0.70,0.0230,,,1.4166,34.89,34.536,26.7942,26.7933,0.5490,87.1750,-9.990e-29,9.9990e+03,,,,,,,
CalCOFI,0711NH,048,,13-Nov-2007 21:00:46,13-Nov-2007 13:00:46,33.24882,-121.45052,083.3 070.0,083.3,070.0,492.000,496.098,7.4055,7.4069,34.2605,34.2606,34.2598,34.2605,0.68751,0.68,0.71,0.0236,,,1.4237,35.10,34.734,26.7864,26.7856,0.5488,87.1800,-9.990e-29,9.9990e+03,,,,,,,
CalCOFI,0711NH,048,,13-Nov-2007 21:00:47,13-Nov-2007 13:00:47,33.24882,-121.45052,083.3 070.0,083.3,070.0,491.000,495.088,7.4149,7.4164,34.2605,34.2606,34.2597,34.2604,0.69082,0.68,0.71,0.0237,,,1.4629,36.28,35.829,26.7850,26.7842,0.5490,87.1750,-9.990e-29,9.9990e+03,,,,,,,
CalCOFI,0711NH,048,,13-Nov-2007 21:00:47,13-Nov-2007 13:00:47,33.24882,-121.45054,083.3 070.0,083.3,070.0,490.000,494.079,7.4262,7.4280,34.2601,34.2602,34.2593,34.2600,0.69433,0.69,0.72,0.0233,,,1.4366,35.49,35.095,26.7831,26.7822,0.5493,87.1692,-9.990e-29,9.9990e+03,,,,,,,
CalCOFI,0711NH,048,,13-Nov-2007 21:00:49,13-Nov-2007 13:00:49,33.24882,-121.45054,083.3 070.0,083.3,070.0,489.000,493.069,7.4282,7.4320,34.2598,34.2599,34.2591,34.2598,0.69556,0.69,0.72,0.0232,,,1.4327,35.37,34.986,26.7826,26.7815,0.5497,87.1595,-9.990e-29,9.9990e+03,,,,,,,
CalCOFI,0711NH,048,,13-Nov-2007 21:00:54,13-Nov-2007 13:00:54,33.24882,-9.990e-29,083.3 070.0,083.3,070.0,488.000,492.060,7.4102,7.4170,34.2604,34.2605,34.2593,34.2600,0.69933,0.69,0.72,0.0235,,,1.4282,35.24,34.860,26.7855,26.7837,0.5495,87.1653,-9.990e-29,9.9990e+03,,,,,,,
CalCOFI,0711NH,048,,13-Nov-2007 21:00:54,13-Nov-2007 13:00:54,33.24883,-9.990e-29,083.3 070.0,083.3,070.0,487.000,491.050,7.4349,7.4389,34.2591,34.2592,34.2585,34.2592,0.70207,0.69,0.72,0.0236,,,1.4657,36.36,35.907,26.7810,26.7800,0.5493,87.1685,-9.990e-29,9.9990e+03,,,,,,,
CalCOFI,0711NH,048,,13-Nov-2007 21:00:55,13-Nov-2007 13:00:55,33.24884,-9.990e-29,083.3 070.0,083.3,070.0,486.000,490.041,7.4438,7.4450,34.2593,34.2594,34.2586,34.2593,0.70179,0.69,0.72,0.0230,,,1.4479,35.83,35.410,26.7799,26.7792,0.5514,87.1229,-9.990e-29,9.9990e+03,,,,,,,
CalCOFI,0711NH,048,,13-Nov-2007 21:00:58,13-Nov-2007 13:00:58,33.24885,-121.45058,083.3 070.0,083.3,070.0,485.000,489.031,7.4384,7.4411,34.2588,34.2589,34.2587,34.2594,0.70543,0.70,0.73,0.0233,,,1.4143,34.82,34.472,26.7803,26.7798,0.5491,87.1737,1.7968e+03,9.9990e+03,,,,,,,
CalCOFI,0711NH,048,,13-Nov-2007 21:01:00,13-Nov-2007 13:01:00,33.24886,-121.45058,083.3 070.0,083.3,070.0,484.000,488.022,7.4551,7.4626,34.2594,34.2595,34.2584,34.2591,0.71117,0.70,0.73,-9.990e-29,,,1.4853,36.95,36.455,26.7784,26.7765,0.5491,87.1737,1.7922e+03,9.9990e+03,,,,,,,
CalCOFI,0711NH,048,,13-Nov-2007 21:01:01,13-Nov-2007 13:01:01,33.24886,-121.45058,083.3 070.0,083.3,070.0,483.000,487.012,7.4856,7.4879,34.2595,34.2596,34.2589,34.2596,0.71191,0.70,0.73,-9.990e-29,,,1.4900,37.09,36.586,26.7741,26.7733,0.5493,87.1696,1.7854e+03,9.9990e+03,,,,,,,
CalCOFI,0711NH,048,,13-Nov-2007 21:01:01,13-Nov-2007 13:01:01,33.24886,-121.45058,083.3 070.0,083.3,070.0,482.000,486.003,7.4954,7.4974,34.2598,34.2599,34.2591,34.2598,0.71332,0.70,0.74,-9.990e-29,,,1.4651,36.35,35.890,26.7730,26.7721,0.5494,87.1676,1.7851e+03,9.9990e+03,,,,,,,
CalCOFI,0711NH,048,,13-Nov-2007 21:01:03,13-Nov-2007 13:01:03,33.24886,-121.45060,083.3 070.0,083.3,070.0,481.000,484.993,7.5001,7.5006,34.2600,34.2601,34.2592,34.2599,0.71620,0.71,0.74,-9.990e-29,,,1.4125,34.77,34.421,26.7724,26.7717,0.5493,87.1686,1.7798e+03,9.9990e+03,,,,,,,
CalCOFI,0711NH,048,,13-Nov-2007 21:01:05,13-Nov-2007 13:01:05,33.24887,-121.45061,083.3 070.0,083.3,070.0,480.000,483.984,7.5054,7.5065,34.2597,34.2598,34.2592,34.2599,0.71633,0.71,0.74,-9.990e-29,,,1.4358,35.47,35.072,26.7714,26.7709,0.5492,87.1700,1.7767e+03,9.9990e+03,,,,,,,
CalCOFI,0711NH,048,,13-Nov-2007 21:01:09,13-Nov-2007 13:01:09,33.24887,-121.45062,083.3 070.0,083.3,070.0,479.000,482.974,7.5068,7.5124,34.2599,34.2600,34.2592,34.2599,0.72029,0.71,0.74,-9.990e-29,,,1.4529,35.98,35.550,26.7713,26.7700,0.5493,87.1698,1.7729e+03,9.9990e+03,,,,,,,
CalCOFI,0711NH,048,,13-Nov-2007 21:01:10,13-Nov-2007 13:01:10,33.24888,-121.45062,083.3 070.0,083.3,070.0,478.000,481.965,7.5225,7.5244,34.2600,34.2601,34.2591,34.2598,0.72223,0.71,0.74,-9.990e-29,,,1.4030,34.48,34.156,26.7692,26.7682,0.5492,87.1709,1.7696e+03,9.9990e+03,,,,,,,
CalCOFI,0711NH,048,,13-Nov-2007 21:01:11,13-Nov-2007 13:01:11,33.24888,-121.45062,083.3 070.0,083.3,070.0,477.000,480.955,7.5348,7.5353,34.2599,34.2600,34.2592,34.2599,0.72430,0.72,0.75,-9.990e-29,,,1.3642,33.32,33.073,26.7673,26.7667,0.5494,87.1667,1.7691e+03,9.9990e+03,,,,,,,
CalCOFI,0711NH,048,,13-Nov-2007 21:01:13,13-Nov-2007 13:01:13,33.24889,-121.45064,083.3 070.0,083.3,070.0,476.000,479.946,7.5448,7.5451,34.2599,34.2600,34.2592,34.2599,0.72666,0.72,0.75,-9.990e-29,,,1.4005,34.41,34.086,26.7659,26.7653,0.5491,87.1726,1.7692e+03,9.9990e+03,,,,,,,
CalCOFI,0711NH,048,,13-Nov-2007 21:01:14,13-Nov-2007 13:01:14,33.24890,-121.45064,083.3 070.0,083.3,070.0,475.000,478.936,7.5527,7.5531,34.2596,34.2597,34.2588,34.2595,0.72999,0.72,0.75,0.0234,,,1.4233,35.09,34.723,26.7645,26.7638,0.5491,87.1724,1.7690e+03,9.9990e+03,,,,,,,
CalCOFI,0711NH,048,,13-Nov-2007 21:01:15,13-Nov-2007 13:01:15,33.24890,-121.45064,083.3 070.0,083.3,070.0,474.000,477.927,7.5556,7.5576,34.2595,34.2596,34.2586,34.2593,0.73110,0.72,0.75,0.0232,,,1.3896,34.08,33.782,26.7640,26.7630,0.5493,87.1696,1.7692e+03,9.9990e+03,,,,,,,
CalCOFI,0711NH,048,,13-Nov-2007 21:01:18,13-Nov-2007 13:01:18,33.24890,-121.45065,083.3 070.0,083.3,070.0,473.000,476.918,7.5527,7.5556,34.2594,34.2595,34.2586,34.2593,0.73218,0.72,0.75,0.0230,,,1.4428,35.68,35.268,26.7643,26.7633,0.5494,87.1666,1.7612e+03,9.9990e+03,,,,,,,
CalCOFI,0711NH,048,,13-Nov-2007 21:01:20,13-Nov-2007 13:01:20,33.24891,-121.45065,083.3 070.0,083.3,070.0,472.000,475.908,7.5576,7.5601,34.2592,34.2593,34.2582,34.2589,0.73263,0.72,0.75,0.0231,,,1.4584,36.15,35.703,26.7634,26.7623,0.5490,87.1740,1.7515e+03,9.9990e+03,,,,,,,
CalCOFI,0711NH,048,,13-Nov-2007 21:01:21,13-Nov-2007 13:01:21,33.24892,-121.45064,083.3 070.0,083.3,070.0,471.000,474.899,7.5592,7.5615,34.2592,34.2593,34.2580,34.2587,0.73390,0.72,0.76,0.0234,,,1.4559,36.07,35.634,26.7632,26.7620,0.5490,87.1754,1.7496e+03,9.9990e+03,,,,,,,
CalCOFI,0711NH,048,,13-Nov-2007 21:01:22,13-Nov-2007 13:01:22,33.24892,-121.45064,083.3 070.0,083.3,070.0,470.000,473.889,7.5608,7.5626,34.2589,34.2590,34.2581,34.2588,0.73349,0.72,0.76,0.0230,,,1.4194,34.97,34.614,26.7627,26.7618,0.5489,87.1761,1.7291e+03,9.9990e+03,,,,,,,
CalCOFI,0711NH,048,,13-Nov-2007 21:01:26,13-Nov-2007 13:01:26,33.24892,-121.45068,083.3 070.0,083.3,070.0,469.000,472.880,7.5598,7.5626,34.2590,34.2591,34.2579,34.2586,0.73570,0.73,0.76,0.0230,,,1.4195,34.98,34.617,26.7629,26.7617,0.5491,87.1737,1.6657e+03,9.9990e+03,,,,,,,
CalCOFI,0711NH,048,,13-Nov-2007 21:01:27,13-Nov-2007 13:01:27,33.24892,-121.45068,083.3 070.0,083.3,070.0,468.000,471.870,7.5676,7.5698,34.2584,34.2585,34.2575,34.2582,0.73847,0.73,0.76,0.0230,,,1.4003,34.40,34.081,26.7613,26.7603,0.5491,87.1728,1.6581e+03,9.9990e+03,,,,,,,
CalCOFI,0711NH,048,,13-Nov-2007 21:01:28,13-Nov-2007 13:01:28,33.24893,-121.45067,083.3 070.0,083.3,070.0,467.000,470.861,7.5717,7.5739,34.2581,34.2582,34.2573,34.2580,0.73791,0.73,0.76,0.0234,,,1.3834,33.89,33.609,26.7605,26.7595,0.5493,87.1682,1.5492e+03,9.9990e+03,,,,,,,
CalCOFI,0711NH,048,,13-Nov-2007 21:01:29,13-Nov-2007 13:01:29,33.24894,-121.45066,083.3 070.0,083.3,070.0,466.000,469.852,7.5725,7.5747,34.2583,34.2584,34.2574,34.2581,0.73846,0.73,0.76,0.0232,,,1.4102,34.70,34.357,26.7605,26.7595,0.5492,87.1700,1.5421e+03,9.9990e+03,,,,,,,
CalCOFI,0711NH,048,,13-Nov-2007 21:01:32,13-Nov-2007 13:01:32,33.24894,-121.45069,083.3 070.0,083.3,070.0,465.000,468.842,7.5703,7.5726,34.2586,34.2587,34.2575,34.2582,0.74275,0.73,0.76,0.0233,,,1.4086,34.65,34.313,26.7610,26.7599,0.5491,87.1739,1.3254e+03,9.9990e+03,,,,,,,
CalCOFI,0711NH,048,,13-Nov-2007 21:01:34,13-Nov-2007 13:01:34,33.24894,-121.45069,083.3 070.0,083.3,070.0,464.000,467.833,7.5758,7.5783,34.2582,34.2583,34.2573,34.2580,0.75205,0.74,0.77,0.0225,,,1.3852,33.95,33.659,26.7599,26.7589,0.5490,87.1750,1.2092e+03,9.9990e+03,,,,,,,
CalCOFI,0711NH,048,,13-Nov-2007 21:01:35,13-Nov-2007 13:01:35,33.24894,-121.45068,083.3 070.0,083.3,070.0,463.000,466.824,7.6102,7.6094,34.2558,34.2559,34.2554,34.2561,0.75353,0.74,0.78,0.0233,,,1.3792,33.77,33.492,26.7531,26.7529,0.5492,87.1706,1.2078e+03,9.9990e+03,,,,,,,
CalCOFI,0711NH,048,,13-Nov-2007 21:01:37,13-Nov-2007 13:01:37,33.24895,-121.45069,083.3 070.0,083.3,070.0,462.000,465.814,7.6033,7.6085,34.2564,34.2565,34.2553,34.2560,0.75340,0.74,0.78,0.0230,,,1.4133,34.79,34.444,26.7546,26.7530,0.5495,87.1639,1.1337e+03,9.9990e+03,,,,,,,
CalCOFI,0711NH,048,,13-Nov-2007 21:01:40,13-Nov-2007 13:01:40,33.24896,-121.45070,083.3 070.0,083.3,070.0,461.000,464.805,7.6048,7.6106,34.2567,34.2568,34.2560,34.2567,0.76951,0.76,0.79,0.0234,,,1.4081,34.63,34.299,26.7545,26.7532,0.5493,87.1695,1.0948e+03,9.9990e+03,,,,,,,
CalCOFI,0711NH,048,,13-Nov-2007 21:01:41,13-Nov-2007 13:01:41,33.24896,-121.45070,083.3 070.0,083.3,070.0,460.000,463.795,7.6529,7.6537,34.2540,34.2541,34.2527,34.2534,0.77771,0.77,0.80,0.0231,,,1.4165,34.89,34.533,26.7455,26.7444,0.5494,87.1673,1.0972e+03,9.9990e+03,,,,,,,
CalCOFI,0711NH,048,,13-Nov-2007 21:01:42,13-Nov-2007 13:01:42,33.24896,-121.45071,083.3 070.0,083.3,070.0,459.000,462.786,7.6730,7.6730,34.2534,34.2535,34.2524,34.2531,0.78457,0.77,0.81,0.0234,,,1.4070,34.60,34.268,26.7421,26.7413,0.5494,87.1675,1.0969e+03,9.9990e+03,,,,,,,
CalCOFI,0711NH,048,,13-Nov-2007 21:01:44,13-Nov-2007 13:01:44,33.24898,-121.45070,083.3 070.0,083.3,070.0,458.000,461.777,7.6956,7.6947,34.2525,34.2526,34.2514,34.2521,0.79165,0.78,0.81,0.0231,,,1.4283,35.24,34.863,26.7381,26.7374,0.5490,87.1747,1.0970e+03,9.9990e+03,,,,,,,
CalCOFI,0711NH,048,,13-Nov-2007 21:01:45,13-Nov-2007 13:01:45,33.24898,-121.45071,083.3 070.0,083.3,070.0,457.000,460.767,7.7013,7.6998,34.2524,34.2525,34.2515,34.2522,0.79568,0.79,0.82,0.0232,,,1.4141,34.82,34.466,26.7373,26.7367,0.5491,87.1730,1.0972e+03,9.9990e+03,,,,,,,
CalCOFI,0711NH,048,,13-Nov-2007 21:01:47,13-Nov-2007 13:01:47,33.24898,-121.45072,083.3 070.0,083.3,070.0,456.000,459.758,7.7074,7.7079,34.2522,34.2523,34.2512,34.2519,0.79776,0.79,0.82,0.0235,,,1.4332,35.39,35.000,26.7362,26.7353,0.5490,87.1743,1.0933e+03,9.9990e+03,,,,,,,
CalCOFI,0711NH,048,,13-Nov-2007 21:01:50,13-Nov-2007 13:01:50,33.24898,-121.45072,083.3 070.0,083.3,070.0,455.000,458.748,7.7027,7.7031,34.2520,34.2521,34.2511,34.2518,0.80125,0.79,0.82,0.0234,,,1.3938,34.21,33.899,26.7367,26.7359,0.5492,87.1716,1.0605e+03,9.9990e+03,,,,,,,
CalCOFI,0711NH,048,,13-Nov-2007 21:01:52,13-Nov-2007 13:01:52,33.24898,-121.45072,083.3 070.0,083.3,070.0,454.000,457.739,7.7169,7.7189,34.2516,34.2517,34.2504,34.2511,0.80680,0.80,0.83,0.0231,,,1.3964,34.28,33.972,26.7343,26.7331,0.5505,87.1421,1.0651e+03,9.9990e+03,,,,,,,
CalCOFI,0711NH,048,,13-Nov-2007 21:01:52,13-Nov-2007 13:01:52,33.24900,-121.45072,083.3 070.0,083.3,070.0,453.000,456.730,7.7259,7.7272,34.2512,34.2513,34.2500,34.2507,0.80819,0.80,0.83,0.0227,,,1.4304,35.30,34.921,26.7326,26.7315,0.5498,87.1581,1.1260e+03,9.9990e+03,,,,,,,
CalCOFI,0711NH,048,,13-Nov-2007 21:01:53,13-Nov-2007 13:01:53,33.24900,-121.45072,083.3 070.0,083.3,070.0,452.000,455.720,7.7488,7.7497,34.2507,34.2508,34.2497,34.2504,0.80886,0.80,0.83,0.0228,,,1.4366,35.49,35.095,26.7290,26.7280,0.5493,87.1678,1.1608e+03,9.9990e+03,,,,,,,
CalCOFI,0711NH,048,,13-Nov-2007 21:01:56,13-Nov-2007 13:01:56,33.24900,-121.45073,083.3 070.0,083.3,070.0,451.000,454.711,7.7248,7.7345,34.2513,34.2514,34.2499,34.2506,0.81145,0.80,0.83,0.0230,,,1.3927,34.17,33.869,26.7329,26.7304,0.5496,87.1632,1.3923e+03,9.9990e+03,,,,,,,
CalCOFI,0711NH,048,,13-Nov-2007 21:01:59,13-Nov-2007 13:01:59,33.24900,-121.45074,083.3 070.0,083.3,070.0,450.000,453.702,7.7650,7.7740,34.2505,34.2506,34.2488,34.2495,0.82529,0.81,0.85,0.0232,,,1.4170,34.90,34.547,26.7264,26.7238,0.5491,87.1731,1.5099e+03,9.9990e+03,,,,,,,
CalCOFI,0711NH,048,,13-Nov-2007 21:02:00,13-Nov-2007 13:02:00,33.24901,-121.45074,083.3 070.0,083.3,070.0,449.000,452.692,7.7891,7.7909,34.2492,34.2493,34.2476,34.2483,0.82859,0.82,0.85,0.0227,,,1.4202,35.00,34.637,26.7219,26.7204,0.5491,87.1736,1.5200e+03,9.9990e+03,,,,,,,
CalCOFI,0711NH,048,,13-Nov-2007 21:02:01,13-Nov-2007 13:02:01,33.24902,-121.45074,083.3 070.0,083.3,070.0,448.000,451.683,7.7912,7.7933,34.2491,34.2492,34.2476,34.2483,0.82966,0.82,0.85,0.0226,,,1.3984,34.34,34.028,26.7215,26.7200,0.5492,87.1705,1.5196e+03,9.9990e+03,,,,,,,
CalCOFI,0711NH,048,,13-Nov-2007 21:02:03,13-Nov-2007 13:02:03,33.24902,-121.45074,083.3 070.0,083.3,070.0,447.000,450.674,7.7918,7.7942,34.2492,34.2493,34.2480,34.2487,0.83126,0.82,0.85,0.0232,,,1.3987,34.35,34.036,26.7215,26.7202,0.5491,87.1724,1.5382e+03,9.9990e+03,,,,,,,
CalCOFI,0711NH,048,,13-Nov-2007 21:02:05,13-Nov-2007 13:02:05,33.24902,-121.45075,083.3 070.0,083.3,070.0,446.000,449.664,7.7899,7.7928,34.2492,34.2493,34.2479,34.2486,0.83526,0.82,0.86,0.0230,,,1.4110,34.72,34.380,26.7217,26.7203,0.5493,87.1681,1.5392e+03,9.9990e+03,,,,,,,
CalCOFI,0711NH,048,,13-Nov-2007 21:02:07,13-Nov-2007 13:02:07,33.24904,-121.45076,083.3 070.0,083.3,070.0,445.000,448.655,7.7962,7.7994,34.2489,34.2490,34.2475,34.2482,0.83530,0.82,0.86,0.0231,,,1.3978,34.33,34.011,26.7206,26.7190,0.5492,87.1706,1.5190e+03,9.9990e+03,,,,,,,
CalCOFI,0711NH,048,,13-Nov-2007 21:02:08,13-Nov-2007 13:02:08,33.24904,-121.45075,083.3 070.0,083.3,070.0,444.000,447.646,7.7989,7.8010,34.2488,34.2489,34.2473,34.2480,0.83658,0.83,0.86,0.0231,,,1.3760,33.67,33.402,26.7200,26.7186,0.5493,87.1692,1.4954e+03,9.9990e+03,,,,,,,
CalCOFI,0711NH,048,,13-Nov-2007 21:02:11,13-Nov-2007 13:02:11,33.24904,-121.45076,083.3 070.0,083.3,070.0,443.000,446.637,7.7981,7.8008,34.2487,34.2488,34.2474,34.2481,0.83822,0.83,0.86,0.0232,,,1.3620,33.25,33.011,26.7201,26.7187,0.5491,87.1726,1.4833e+03,9.9990e+03,,,,,,,
CalCOFI,0711NH,048,,13-Nov-2007 21:02:15,13-Nov-2007 13:02:15,33.24904,-121.45077,083.3 070.0,083.3,070.0,442.000,445.627,7.7999,7.8020,34.2485,34.2486,34.2473,34.2480,0.83917,0.83,0.86,0.0229,,,1.3515,32.94,32.718,26.7197,26.7184,0.5491,87.1735,1.4881e+03,9.9990e+03,,,,,,,
CalCOFI,0711NH,048,,13-Nov-2007 21:02:18,13-Nov-2007 13:02:18,33.24906,-121.45077,083.3 070.0,083.3,070.0,441.000,444.618,7.8017,7.8031,34.2484,34.2485,34.2473,34.2480,0.84114,0.83,0.86,0.0228,,,1.4135,34.80,34.449,26.7193,26.7182,0.5492,87.1716,1.5527e+03,9.9990e+03,,,,,,,
CalCOFI,0711NH,048,,13-Nov-2007 21:02:20,13-Nov-2007 13:02:20,33.24906,-121.45078,083.3 070.0,083.3,070.0,440.000,443.609,7.8042,7.8054,34.2483,34.2484,34.2470,34.2477,0.84225,0.83,0.86,0.0230,,,1.3584,33.14,32.911,26.7189,26.7177,0.5493,87.1685,1.6447e+03,9.9990e+03,,,,,,,
CalCOFI,0711NH,048,,13-Nov-2007 21:02:21,13-Nov-2007 13:02:21,33.24906,-121.45078,083.3 070.0,083.3,070.0,439.000,442.599,7.8084,7.8101,34.2480,34.2481,34.2467,34.2474,0.84273,0.83,0.86,0.0230,,,1.3488,32.85,32.643,26.7180,26.7167,0.5494,87.1678,1.6732e+03,9.9990e+03,,,,,,,
CalCOFI,0711NH,048,,13-Nov-2007 21:02:27,13-Nov-2007 13:02:27,33.24907,-121.45078,083.3 070.0,083.3,070.0,438.000,441.590,7.8124,7.8138,34.2477,34.2478,34.2464,34.2471,0.84481,0.83,0.87,0.0232,,,1.3697,33.48,33.226,26.7171,26.7159,0.5491,87.1731,1.7695e+03,9.9990e+03,,,,,,,
CalCOFI,0711NH,048,,13-Nov-2007 21:02:32,13-Nov-2007 13:02:32,33.24910,-121.45080,083.3 070.0,083.3,070.0,437.000,440.581,7.8145,7.8151,34.2477,34.2478,34.2464,34.2471,0.84830,0.84,0.87,0.0231,,,1.3810,33.82,33.542,26.7168,26.7157,0.5494,87.1652,1.7992e+03,9.9990e+03,,,,,,,
CalCOFI,0711NH,048,,13-Nov-2007 21:02:34,13-Nov-2007 13:02:34,33.24910,-121.45082,083.3 070.0,083.3,070.0,436.000,439.572,7.8182,7.8186,34.2472,34.2473,34.2461,34.2468,0.84937,0.84,0.87,0.0231,,,1.3600,33.19,32.955,26.7159,26.7149,0.5493,87.1687,1.7971e+03,9.9990e+03,436,7.82 ,34.246,  .56,,,35.0
CalCOFI,0711NH,048,,13-Nov-2007 21:02:40,13-Nov-2007 13:02:40,33.24912,-121.45084,083.3 070.0,083.3,070.0,435.000,438.562,7.8230,7.8251,34.2470,34.2471,34.2457,34.2464,0.85114,0.84,0.87,0.0229,,,1.4095,34.68,34.338,26.7150,26.7137,0.5492,87.1712,1.8005e+03,9.9990e+03,,,,,,,
CalCOFI,0711NH,048,,13-Nov-2007 21:03:25,13-Nov-2007 13:03:25,33.24919,-121.45097,083.3 070.0,083.3,070.0,434.000,437.553,7.8386,7.8407,34.2463,34.2464,34.2449,34.2456,0.85801,0.85,0.88,0.0231,,,1.3798,33.79,33.508,26.7122,26.7108,0.5497,87.1608,1.8018e+03,9.9990e+03,,,,,,,
CalCOFI,0711NH,048,,13-Nov-2007 21:03:49,13-Nov-2007 13:03:49,33.24925,-121.45105,083.3 070.0,083.3,070.0,433.000,436.544,7.8479,7.8499,34.2459,34.2460,34.2445,34.2452,0.86363,0.85,0.88,0.0228,,,1.4021,34.45,34.131,26.7105,26.7092,0.5494,87.1673,1.8006e+03,9.9990e+03,,,,,,,
CalCOFI,0711NH,048,,13-Nov-2007 21:03:49,13-Nov-2007 13:03:49,33.24924,-121.45104,083.3 070.0,083.3,070.0,432.000,435.535,7.8528,7.8536,34.2456,34.2457,34.2442,34.2449,0.86460,0.85,0.89,0.0224,,,1.3991,34.36,34.047,26.7095,26.7083,0.5491,87.1738,1.8008e+03,9.9990e+03,,,,,,,
CalCOFI,0711NH,048,,13-Nov-2007 21:03:50,13-Nov-2007 13:03:50,33.24925,-121.45106,083.3 070.0,083.3,070.0,431.000,434.525,7.8544,7.8572,34.2454,34.2455,34.2439,34.2446,0.86589,0.85,0.89,0.0229,,,1.3655,33.36,33.109,26.7091,26.7075,0.5491,87.1734,1.8008e+03,9.9990e+03,,,,,,,
CalCOFI,0711NH,048,,13-Nov-2007 21:03:51,13-Nov-2007 13:03:51,33.24926,-121.45106,083.3 070.0,083.3,070.0,430.000,433.516,7.8558,7.8578,34.2452,34.2453,34.2439,34.2446,0.86707,0.86,0.89,0.0229,,,1.3542,33.02,32.793,26.7088,26.7074,0.5496,87.1613,1.8008e+03,9.9990e+03,,,,,,,
CalCOFI,0711NH,048,,13-Nov-2007 21:03:52,13-Nov-2007 13:03:52,33.24927,-121.45106,083.3 070.0,083.3,070.0,429.000,432.507,7.8579,7.8603,34.2452,34.2453,34.2439,34.2446,0.86687,0.86,0.89,0.0231,,,1.3792,33.77,33.492,26.7084,26.7070,0.5492,87.1699,1.8008e+03,9.9990e+03,,,,,,,
CalCOFI,0711NH,048,,13-Nov-2007 21:03:55,13-Nov-2007 13:03:55,33.24928,-121.45108,083.3 070.0,083.3,070.0,428.000,431.498,7.8553,7.8579,34.2452,34.2453,34.2440,34.2447,0.86758,0.86,0.89,0.0228,,,1.3918,34.15,33.843,26.7088,26.7074,0.5495,87.1644,1.8007e+03,9.9990e+03,,,,,,,